Weather History for Manistee, MI

Change the Weather History Date:

Tuesday, November 27, 2012

  Actual Average Record
Temperature  
Mean Temperature 30 °F -  
Max Temperature 35 °F 40 °F 64 °F (1990)
Min Temperature 24 °F 28 °F 9 °F (1951)
Degree Days  
Heating Degree Days 36    
Moisture  
Dew Point 17 °F    
Average Humidity 63    
Maximum Humidity 74    
Minimum Humidity 44    
Precipitation  
Precipitation 0.00 in - - ()
Sea Level Pressure  
Sea Level Pressure 30.26 in    
Wind  
Wind Speed 6 mph (SW)    
Max Wind Speed 15 mph    
Max Gust Speed 24 mph    
Visibility 10 miles    
Events      
Averages and records for this station are not official NWS values.
T = Trace of Precipitation, MM = Missing Value Source: NWS Daily Summary

Daily Weather History Graph

Daily Weather History Graph

Search for Another Location

Airport:

Trip Planner

Search our weather history database for the weather conditions in past years. The results will help you decide how hot, cold, wet, or windy it might be!

Date:

Astronomy

Nov. 27, 2012 Rise Set
Actual Time 7:56 AM EST 5:08 PM EST
Civil Twilight 7:24 AM EST 5:41 PM EST
Nautical Twilight 6:48 AM EST 6:17 PM EST
Astronomical Twilight 6:13 AM EST 6:51 PM EST
Moon 4:40 PM EST (11/27) 7:00 AM EST (11/27)
Length of Visible Light 10h 16m
Length of Day
9h 12m
Waxing Gibbous, 99% of the Moon is Illuminated
Nov 27
Waxing Gibbous
Nov 28
Full
Dec 6
Last Quarter
Dec 13
New
Dec 20
First Quarter

Hourly Weather History & Observations

Time (EST) Temp. Windchill Dew Point Humidity Pressure Visibility Wind Dir Wind Speed Gust Speed Precip Events Conditions
12:15 AM 26.6 °F - 17.6 °F 69% 30.30 in 10.0 mi Calm Calm - N/A   Overcast
12:35 AM 26.6 °F - 17.6 °F 69% 30.30 in 10.0 mi Calm Calm - N/A   Overcast
12:55 AM 26.6 °F - 17.6 °F 69% 30.30 in 10.0 mi Calm Calm - N/A   Overcast
1:15 AM 26.6 °F 22.6 °F 17.6 °F 69% 30.30 in 10.0 mi ENE 3.5 mph - N/A   Overcast
1:35 AM 26.6 °F - 17.6 °F 69% 30.30 in 10.0 mi Calm Calm - N/A   Overcast
1:55 AM 26.6 °F 18.2 °F 19.4 °F 74% 30.30 in 10.0 mi West 8.1 mph - N/A   Overcast
2:15 AM 28.4 °F 22.2 °F 17.6 °F 64% 30.30 in 10.0 mi West 5.8 mph - N/A   Overcast
2:35 AM 28.4 °F 20.4 °F 17.6 °F 64% 30.31 in 10.0 mi West 8.1 mph - N/A   Overcast
2:55 AM 28.4 °F 20.4 °F 17.6 °F 64% 30.32 in 10.0 mi West 8.1 mph - N/A   Overcast
3:15 AM 28.4 °F 21.2 °F 17.6 °F 64% 30.31 in 10.0 mi West 6.9 mph - N/A   Overcast
3:35 AM 28.4 °F 21.2 °F 17.6 °F 64% 30.31 in 10.0 mi West 6.9 mph - N/A   Overcast
3:55 AM 28.4 °F 19.7 °F 17.6 °F 64% 30.31 in 10.0 mi West 9.2 mph - N/A   Overcast
4:15 AM 28.4 °F 20.4 °F 17.6 °F 64% 30.31 in 10.0 mi West 8.1 mph - N/A   Overcast
4:35 AM 28.4 °F 19.1 °F 15.8 °F 59% 30.30 in 10.0 mi West 10.4 mph - N/A   Overcast
4:55 AM 26.6 °F 19.1 °F 17.6 °F 69% 30.30 in 10.0 mi West 6.9 mph - N/A   Overcast
5:15 AM 26.6 °F 18.2 °F 17.6 °F 69% 30.31 in 10.0 mi West 8.1 mph - N/A   Overcast
5:35 AM 26.6 °F 18.2 °F 17.6 °F 69% 30.31 in 10.0 mi West 8.1 mph - N/A   Overcast
5:55 AM 26.6 °F 18.2 °F 17.6 °F 69% 30.31 in 10.0 mi West 8.1 mph - N/A   Overcast
6:15 AM 26.6 °F 17.5 °F 17.6 °F 69% 30.31 in 10.0 mi West 9.2 mph - N/A   Overcast
6:35 AM 26.6 °F 19.1 °F 17.6 °F 69% 30.31 in 10.0 mi West 6.9 mph - N/A   Overcast
7:15 AM 26.6 °F 21.2 °F 15.8 °F 64% 30.31 in 10.0 mi WSW 4.6 mph - N/A   Overcast
7:35 AM 24.8 °F 20.5 °F 15.8 °F 69% 30.31 in 10.0 mi WSW 3.5 mph - N/A   Mostly Cloudy
7:55 AM 24.8 °F 20.5 °F 15.8 °F 69% 30.31 in 10.0 mi SSW 3.5 mph - N/A   Partly Cloudy
8:15 AM 24.8 °F 19.1 °F 15.8 °F 69% 30.31 in 10.0 mi SSW 4.6 mph - N/A   Partly Cloudy
8:35 AM 24.8 °F 20.5 °F 17.6 °F 74% 30.32 in 10.0 mi SSW 3.5 mph - N/A   Partly Cloudy
8:55 AM 24.8 °F 19.1 °F 15.8 °F 69% 30.32 in 10.0 mi SSW 4.6 mph - N/A   Partly Cloudy
9:15 AM 24.8 °F 20.5 °F 17.6 °F 74% 30.32 in 10.0 mi SSW 3.5 mph - N/A   Scattered Clouds
9:35 AM 28.4 °F 20.4 °F 14.0 °F 55% 30.32 in 10.0 mi WSW 8.1 mph - N/A   Scattered Clouds
9:55 AM 26.6 °F 17.5 °F 15.8 °F 64% 30.32 in 10.0 mi West 9.2 mph - N/A   Scattered Clouds
10:15 AM 28.4 °F 18.5 °F 17.6 °F 64% 30.33 in 10.0 mi West 11.5 mph - N/A   Scattered Clouds
10:35 AM 28.4 °F 19.1 °F 15.8 °F 59% 30.33 in 10.0 mi WSW 10.4 mph - N/A   Mostly Cloudy
10:55 AM 28.4 °F 19.7 °F 15.8 °F 59% 30.34 in 10.0 mi West 9.2 mph - N/A   Mostly Cloudy
11:15 AM 28.4 °F 18.0 °F 17.6 °F 64% 30.34 in 10.0 mi WSW 12.7 mph - N/A   Mostly Cloudy
11:35 AM 28.4 °F 20.4 °F 15.8 °F 59% 30.33 in 10.0 mi WSW 8.1 mph - N/A   Partly Cloudy
11:55 AM 28.4 °F 18.0 °F 17.6 °F 64% 30.32 in 10.0 mi WSW 12.7 mph - N/A   Clear
12:15 PM 28.4 °F 19.1 °F 15.8 °F 59% 30.32 in 10.0 mi SW 10.4 mph 16.1 mph N/A   Clear
12:35 PM 28.4 °F 19.1 °F 15.8 °F 59% 30.30 in 10.0 mi SW 10.4 mph - N/A   Clear
12:55 PM 30.2 °F 24.3 °F 15.8 °F 55% 30.29 in 10.0 mi SW 5.8 mph - N/A   Clear
1:15 PM 30.2 °F 21.3 °F 15.8 °F 55% 30.29 in 10.0 mi SW 10.4 mph - N/A   Clear
1:35 PM 30.2 °F 20.8 °F 15.8 °F 55% 30.28 in 10.0 mi SW 11.5 mph - N/A   Clear
1:55 PM 30.2 °F 21.3 °F 15.8 °F 55% 30.27 in 10.0 mi SSW 10.4 mph 17.3 mph N/A   Clear
2:15 PM 30.2 °F 20.8 °F 14.0 °F 51% 30.26 in 10.0 mi SSW 11.5 mph 17.3 mph N/A   Clear
2:35 PM 32.0 °F 23.0 °F 14.0 °F 48% 30.25 in 10.0 mi SW 11.5 mph 16.1 mph N/A   Clear
2:55 PM 32.0 °F 23.0 °F 14.0 °F 48% 30.24 in 10.0 mi SSW 11.5 mph - N/A   Clear
3:15 PM 32.0 °F 23.0 °F 14.0 °F 48% 30.24 in 10.0 mi SSW 11.5 mph 16.1 mph N/A   Clear
3:35 PM 32.0 °F 23.6 °F 12.2 °F 44% 30.23 in 10.0 mi SW 10.4 mph 17.3 mph N/A   Clear
3:55 PM 30.2 °F 21.3 °F 15.8 °F 55% 30.23 in 10.0 mi SW 10.4 mph 17.3 mph N/A   Clear
4:15 PM 30.2 °F 22.6 °F 15.8 °F 55% 30.23 in 10.0 mi SSW 8.1 mph 16.1 mph N/A   Clear
4:35 PM 30.2 °F 24.3 °F 17.6 °F 60% 30.23 in 10.0 mi SSW 5.8 mph - N/A   Partly Cloudy
4:55 PM 30.2 °F 23.4 °F 17.6 °F 60% 30.23 in 10.0 mi SSW 6.9 mph - N/A   Scattered Clouds
5:15 PM 30.2 °F 23.4 °F 17.6 °F 60% 30.22 in 10.0 mi SSW 6.9 mph - N/A   Mostly Cloudy
5:35 PM 30.2 °F 23.4 °F 17.6 °F 60% 30.22 in 10.0 mi SSW 6.9 mph - N/A   Mostly Cloudy
5:55 PM 28.4 °F 23.3 °F 17.6 °F 64% 30.20 in 10.0 mi South 4.6 mph - N/A   Partly Cloudy
6:15 PM 28.4 °F 23.3 °F 17.6 °F 64% 30.20 in 10.0 mi SSE 4.6 mph - N/A   Clear
6:35 PM 28.4 °F 23.3 °F 17.6 °F 64% 30.19 in 10.0 mi South 4.6 mph - N/A   Clear
6:55 PM 28.4 °F 23.3 °F 17.6 °F 64% 30.19 in 10.0 mi South 4.6 mph - N/A   Clear
7:15 PM 28.4 °F 22.2 °F 17.6 °F 64% 30.18 in 10.0 mi South 5.8 mph - N/A   Clear
7:35 PM 28.4 °F 23.3 °F 17.6 °F 64% 30.17 in 10.0 mi SSE 4.6 mph - N/A   Clear
7:55 PM 28.4 °F 20.4 °F 17.6 °F 64% 30.17 in 10.0 mi South 8.1 mph - N/A   Clear
8:15 PM 28.4 °F 23.3 °F 17.6 °F 64% 30.17 in 10.0 mi SSW 4.6 mph - N/A   Partly Cloudy
8:35 PM 28.4 °F 22.2 °F 17.6 °F 64% 30.16 in 10.0 mi South 5.8 mph - N/A   Scattered Clouds
8:55 PM 28.4 °F 23.3 °F 17.6 °F 64% 30.16 in 10.0 mi South 4.6 mph - N/A   Mostly Cloudy
9:15 PM 28.4 °F 24.6 °F 17.6 °F 64% 30.16 in 10.0 mi South 3.5 mph - N/A   Mostly Cloudy
9:35 PM 26.6 °F 22.6 °F 19.4 °F 74% 30.15 in 10.0 mi SSE 3.5 mph - N/A   Overcast
9:55 PM 28.4 °F 23.3 °F 17.6 °F 64% 30.15 in 10.0 mi SSE 4.6 mph - N/A   Overcast
10:15 PM 28.4 °F - 19.4 °F 69% 30.15 in 10.0 mi Calm Calm - N/A   Overcast
10:35 PM 28.4 °F 23.3 °F 19.4 °F 69% 30.15 in 10.0 mi SSW 4.6 mph - N/A   Overcast
10:55 PM 33.8 °F 25.3 °F 21.2 °F 60% 30.15 in 10.0 mi WSW 11.5 mph 18.4 mph N/A   Overcast
11:15 PM 35.6 °F 26.2 °F 21.2 °F 56% 30.15 in 10.0 mi West 15.0 mph 21.9 mph N/A   Mostly Cloudy
11:35 PM 33.8 °F 23.9 °F 19.4 °F 56% 30.15 in 10.0 mi West 15.0 mph 20.7 mph N/A   Overcast
11:55 PM 32.0 °F 22.1 °F 23.0 °F 69% 30.15 in 4.0 mi West 13.8 mph 24.2 mph N/A   Overcast